Temp
30 30 29 29 28 27 27 27 27 27 25 25 24 24 23 23 22 22 22 23 22 23 23 23 23 22 24 25 25 25 25 25 26 27 27 24 23 23 24 24 24 25 25
31 30 30 29 29 29 28 28 27 27 25 24 24 23 23 23 22 22 22 24 22 23 23 23 23 23 22 22 24 22 23 22 23 24 24 24 24 24 23 23 24 26 24
31 31 30 30 29 29 29 28 28 27 25 25 24 23 23 23 22 22 22 23 22 23 23 22 23 22 22 22 21 22 24 23 23 23 23 24 25 24 24 23 23 24 24
33 31 30 29 30 29 29 28 28 26 25 24 24 23 23 23 23 22 22 22 22 23 23 22 22 22 22 21 21 21 21 21 23 22 24 25 25 24 23 24 25 24 25
31 31 30 29 29 29 29 28 27 25 24 23 23 23 23 23 23 23 22 22 22 23 22 22 21 21 20 20 20 21 20 21 22 23 24 25 25 24 23 24 24 24 24
29 29 29 28 27 27 26 26 24 24 24 23 23 23 22 23 24 24 23 23 22 22 22 22 21 20 19 19 19 19 18 19 19 21 22 22 22 22 23 22 23 23 24
24 23 23 23 21 22 22 22 22 23 21 21 22 22 22 22 22 23 22 23 23 22 22 22 22 23 20 20 19 19 18 18 18 18 19 20 20 20 20 20 21 20 22
21 20 20 20 19 19 20 20 20 19 19 19 21 21 21 21 22 21 21 21 21 22 22 21 21 21 21 20 21 20 20 18 19 18 19 19 19 19 18 19 19 19 20
20 19 19 19 19 19 19 20 21 21 21 21 22 21 20 20 21 20 20 20 21 21 21 21 21 20 20 19 19 19 20 21 20 20 19 18 18 18 18 17 19 21 23
20 20 20 20 21 21 20 19 19 20 20 20 21 21 20 20 20 19 19 21 20 20 21 20 20 19 19 18 18 19 20 20 20 20 19 19 19 18 18 17 18 20 22
20 21 21 20 21 20 19 19 18 19 19 20 20 20 19 19 17 18 18 17 17 17 18 20 20 19 19 18 17 17 19 19 19 19 19 21 21 21 20 18 18 19 20
21 21 20 20 20 19 19 17 16 18 18 18 17 17 16 16 15 15 16 16 16 16 16 16 16 16 17 18 17 17 17 18 18 20 21 21 21 22 22 21 20 19 19
21 20 20 19 19 20 19 18 16 15 15 15 15 15 15 15 15 15 14 15 15 15 15 16 16 16 16 16 17 17 17 17 18 19 20 20 21 21 20 20 19 19 19
21 21 21 20 18 17 18 20 19 18 17 16 14 14 14 14 14 14 14 14 15 15 15 15 15 15 14 14 16 17 17 17 18 18 18 18 19 19 20 20 20 21 21
22 21 22 20 18 17 15 16 18 16 17 18 17 16 15 14 14 14 14 14 14 14 14 15 15 14 14 14 15 16 17 17 17 17 17 18 18 19 19 20 20 20 20
23 22 21 21 20 21 20 16 15 15 16 16 15 15 15 15 15 15 15 15 15 15 15 15 15 14 15 15 14 14 15 15 15 14 15 15 15 15 16 17 18 19 20
23 22 23 22 23 21 20 20 18 14 14 14 15 15 15 14 14 14 14 14 14 14 14 14 14 15 15 15 15 14 14 13 13 13 13 14 14 14 14 15 16 16 16
21 20 21 21 20 20 19 18 18 18 18 16 15 15 15 15 15 14 14 14 14 14 14 14 14 13 13 13 12 12 12 12 13 13 14 14 14 14 14 14 14 14 14
22 21 21 20 21 21 20 19 19 19 19 19 16 15 16 16 15 16 16 16 18 18 18 18 17 17 17 16 16 15 15 15 15 14 15 16 16 15 15 16 16 15 13
19 18 19 20 20 20 20 21 21 21 21 20 19 17 17 17 18 18 18 17 17 17 17 17 16 16 16 15 15 15 15 16 16 16 16 15 15 15 15 15 15 15 15
21 19 19 20 20 20 21 21 21 21 20 20 19 16 16 15 18 18 18 17 17 17 16 16 15 16 16 16 15 15 15 16 16 16 16 16 15 15 15 15 15 15 15
21 21 20 20 20 20 20 20 20 19 19 19 19 16 17 17 18 18 17 17 17 17 16 16 16 16 16 16 15 15 16 16 15 15 14 13 13 13 13 13 13 13 14
21 21 20 19 19 19 20 19 19 19 19 19 19 18 18 18 18 17 17 17 17 16 16 16 16 16 16 16 15 15 14 14 14 13 13 13 12 12 12 12 12 12 12
20 20 19 19 18 19 19 19 19 18 18 18 18 18 18 18 18 18 18 18 17 17 17 16 16 16 15 14 14 13 13 13 13 12 12 12 12 12 11 11 11 11 11
19 19 19 18 18 18 19 19 19 18 18 18 18 18 18 18 18 18 17 17 17 17 16 16 16 15 15 15 15 14 13 13 12 12 11 11 11 11 11 11 11 11 11
19 18 19 19 19 18 18 18 18 18 18 18 18 18 18 17 17 17 17 16 14 14 14 14 14 14 14 14 13 12 12 11 10 10 10 10 10 10 10 10 10 10 10
Height
780 782 786 789 792 795 796 798 800 803 805 806 808 810 811 811 812 812 812 812 813 814 814 814 815 814 813 812 811 810 809 809 807 804 804 806 809 810 809 809 809 807 804
775 779 782 785 786 788 791 793 796 798 801 802 804 806 807 809 811 812 811 810 811 811 812 813 814 812 814 814 811 811 811 811 810 808 808 807 806 807 807 808 806 803 801
772 775 778 780 783 784 785 788 790 792 796 799 801 804 806 807 806 807 810 809 810 810 810 811 811 811 812 812 813 811 809 809 809 808 807 805 804 804 803 803 803 802 800
768 772 775 778 778 780 782 783 787 789 793 798 799 801 803 805 806 806 805 807 809 809 810 810 810 811 810 811 812 811 810 810 807 808 804 802 801 801 802 801 799 799 797
768 771 772 775 776 777 778 780 782 782 784 788 793 796 800 801 800 799 802 804 804 807 808 809 810 809 810 810 809 808 808 808 806 804 803 800 799 799 799 798 798 797 796
770 771 772 773 776 776 777 777 777 779 776 777 774 781 791 795 793 795 799 799 802 803 804 806 807 808 807 808 808 808 808 809 808 804 802 802 802 802 800 799 797 797 793
771 773 774 774 776 775 777 779 780 781 783 780 780 779 781 786 789 790 794 797 798 799 801 803 803 802 804 806 806 806 807 808 808 808 805 804 804 803 801 800 799 799 796
777 779 778 779 779 780 781 781 780 780 778 777 776 777 778 779 782 785 789 791 796 797 797 799 802 803 804 806 806 806 804 805 804 805 805 804 804 803 802 801 799 799 795
783 784 784 784 784 784 784 782 780 778 775 772 772 771 772 775 778 782 786 788 791 794 795 794 796 803 802 803 805 806 805 803 802 803 802 801 800 800 799 799 797 795 788
787 787 787 786 785 784 783 781 777 773 768 766 765 766 767 769 771 776 782 787 789 791 793 794 790 797 802 804 804 801 802 802 801 804 801 797 797 796 797 795 795 793 790
789 789 788 788 787 786 784 779 773 768 763 760 761 762 765 765 764 768 779 787 787 789 794 792 789 791 800 803 806 802 800 800 801 802 799 794 791 790 791 790 792 793 790
791 790 790 789 788 787 785 781 775 769 765 761 762 765 766 765 761 769 781 786 790 791 792 788 789 794 801 801 805 802 799 798 798 798 796 792 790 788 787 788 788 789 788
792 792 791 791 790 789 786 784 781 778 775 772 770 770 770 771 777 782 786 790 791 792 794 794 795 798 802 804 803 801 798 795 795 794 793 792 790 788 786 786 785 785 783
793 793 793 794 794 790 788 786 785 784 783 782 782 781 783 782 782 786 788 790 793 793 793 795 798 800 801 802 801 798 797 793 794 793 792 792 790 788 784 783 781 780 778
794 795 794 795 795 795 793 792 792 791 790 789 790 790 791 791 792 794 795 795 794 794 795 796 796 796 796 796 796 796 795 793 792 791 791 789 788 785 782 780 779 776 774
795 796 797 796 795 794 796 798 796 795 794 794 794 794 795 795 795 794 795 795 795 794 795 794 793 793 793 792 792 792 792 791 791 791 790 790 787 786 781 778 776 773 770
796 797 794 794 794 797 796 796 799 800 799 798 797 796 796 797 797 796 796 796 795 795 794 793 793 793 792 792 793 792 791 791 791 790 790 788 786 783 781 778 776 774 771
799 799 797 796 797 796 797 799 799 799 800 802 801 800 800 800 799 798 797 796 796 794 794 794 794 794 793 793 793 792 791 790 790 789 787 786 784 782 780 779 777 774 773
799 799 799 800 799 799 799 798 798 799 799 799 801 800 800 800 800 799 798 796 794 793 792 791 792 791 790 790 789 790 789 788 787 787 784 782 781 780 777 775 773 773 773
803 803 802 802 802 802 801 799 797 797 797 799 800 804 803 800 798 798 798 799 796 795 795 794 794 794 793 793 792 790 788 786 785 783 781 781 779 777 775 773 772 769 767
803 805 804 804 802 802 800 799 800 799 799 800 801 806 805 803 799 799 798 798 797 797 796 795 795 793 792 790 789 787 786 784 782 780 778 777 775 774 772 771 768 766 763
805 805 805 805 805 805 804 804 804 804 803 803 801 803 804 802 800 799 799 798 796 796 795 794 793 791 789 788 787 785 783 781 779 778 777 777 775 774 773 770 767 764 762
806 805 806 807 807 807 805 806 806 806 804 804 803 803 802 802 801 800 799 797 796 795 793 792 790 788 786 785 784 784 782 780 779 778 776 774 773 772 769 768 767 764 761
808 808 809 809 810 807 808 808 807 808 808 805 804 803 801 800 798 796 794 792 791 790 788 787 786 784 784 782 781 780 778 776 774 773 773 770 768 766 765 764 761 758 755
809 810 811 811 811 810 809 808 808 807 806 805 803 802 800 798 797 795 793 791 789 787 785 785 782 780 778 777 775 773 771 769 768 766 765 764 762 759 757 754 752 751 749
812 812 812 811 810 810 810 809 808 807 805 805 802 800 799 799 796 794 792 791 791 790 788 785 781 778 776 773 771 769 766 763 761 760 758 756 753 750 748 746 745 743 740
Wind_Speed
21 22 21 20 17 16 18 17 15 15 9 11 11 10 10 8 7 7 6 2 4 5 4 2 3 3 5 3 3 3 4 5 7 9 5 4 2 5 8 8 10 15 16
19 19 21 20 18 18 18 17 16 16 13 14 13 13 12 10 9 8 8 7 8 7 7 5 5 4 2 3 4 1 5 5 6 6 9 10 6 4 8 7 10 11 6
18 19 19 20 20 19 18 17 17 17 15 14 13 13 12 11 11 10 10 9 9 8 8 7 6 5 4 4 4 4 3 3 5 7 9 8 7 8 7 9 10 9 10
13 16 17 18 20 20 19 16 16 16 13 11 11 12 12 12 12 12 12 11 10 9 8 7 6 6 5 4 5 3 4 3 5 7 9 7 7 4 6 9 9 9 8
10 13 14 15 16 17 15 16 18 14 15 11 10 12 14 16 17 17 14 13 12 9 8 7 8 8 7 5 5 2 2 6 6 6 8 8 6 4 8 8 6 9 9
7 8 10 7 13 14 14 15 18 14 17 16 22 20 19 21 20 20 16 14 13 11 10 9 8 8 9 6 6 5 3 4 5 6 7 8 6 5 8 9 8 10 6
10 12 10 7 5 2 5 8 9 11 10 14 16 16 21 22 20 22 22 13 13 12 10 8 9 11 11 7 7 6 7 6 6 7 6 7 8 8 9 9 9 8 9
15 13 11 7 5 4 7 10 12 15 18 19 17 20 23 22 22 19 19 19 12 11 9 6 8 7 6 7 9 10 9 9 10 7 7 10 11 9 8 9 11 12 14
11 10 8 7 5 6 10 14 17 21 24 26 25 23 22 22 25 21 20 17 18 13 10 8 5 9 10 9 10 11 12 9 8 10 10 10 10 12 14 11 12 15 15
6 6 6 6 6 8 13 16 19 22 26 26 24 23 24 26 25 28 21 16 15 10 8 9 5 7 10 8 8 8 11 10 10 9 10 11 11 11 9 10 13 13 13
8 8 8 9 8 12 16 20 22 19 19 19 19 16 20 23 27 23 19 6 7 4 2 3 1 4 7 13 14 10 8 6 7 12 14 12 9 9 10 12 10 11 12
6 6 8 9 10 14 18 21 20 17 15 12 12 9 13 17 15 12 9 7 5 6 8 10 10 9 12 8 12 10 10 10 9 14 14 12 10 9 8 7 8 10 13
4 8 9 11 11 11 15 19 21 24 21 22 25 22 19 13 11 10 10 6 1 1 3 1 2 7 12 17 14 13 11 8 11 12 13 14 12 12 11 13 12 18 16
9 8 9 11 14 14 15 17 16 17 15 15 15 16 16 18 17 10 10 10 8 5 4 9 14 17 17 17 16 12 14 11 12 12 15 15 15 15 14 15 15 15 15
9 10 9 10 9 11 15 13 13 14 13 13 13 12 11 9 8 7 5 6 8 11 13 14 15 16 15 17 16 14 14 11 7 8 12 15 14 15 15 14 15 16 16
9 8 6 7 6 7 8 12 12 7 7 8 6 4 3 2 5 7 11 11 12 11 9 10 9 14 14 11 4 5 5 6 6 8 12 12 13 14 14 18 18 16 15
5 3 3 2 5 7 5 6 10 15 16 15 12 11 10 10 9 7 5 4 4 6 4 7 7 6 4 4 5 4 5 5 11 9 10 11 12 12 14 15 16 16 17
5 7 6 7 8 7 6 7 7 7 7 9 13 15 14 12 11 7 3 1 2 3 2 2 3 4 4 4 4 5 6 5 6 8 8 9 10 10 11 10 12 13 14
4 7 6 7 8 8 6 4 5 4 4 4 5 6 5 3 5 9 7 6 6 7 7 5 6 7 7 5 6 7 7 9 7 9 10 10 10 12 13 14 13 11 9
8 8 7 5 5 7 8 6 6 4 4 4 9 12 12 9 3 7 5 7 8 6 7 7 5 6 7 7 7 7 9 9 10 10 10 11 13 12 14 15 16 17 17
3 6 5 4 4 3 5 8 8 8 7 6 8 6 5 8 9 8 9 8 7 8 8 7 9 9 9 9 9 11 13 14 14 14 15 16 15 15 16 18 18 19 18
4 4 5 6 7 7 7 6 6 6 7 7 7 5 6 7 9 9 10 10 10 10 10 11 12 12 12 11 13 15 15 16 16 17 17 20 19 19 22 23 23 22 24
4 5 5 5 5 1 4 6 8 9 8 8 8 9 9 9 9 9 10 10 10 12 12 13 14 15 15 14 15 18 19 18 18 19 21 18 15 18 19 20 21 18 19
5 6 6 7 6 7 8 5 4 2 5 7 7 7 8 9 10 11 12 13 13 13 14 15 17 18 18 18 18 17 20 22 20 20 23 25 23 21 22 25 24 25 22
5 5 5 5 5 5 4 6 6 7 7 8 9 10 11 13 16 16 17 18 19 18 18 22 23 22 18 17 21 23 21 19 20 23 25 26 27 28 28 29 29 30 31
3 3 2 3 4 5 6 7 7 8 8 11 11 12 14 17 17 17 19 18 18 20 21 24 24 23 24 24 24 23 24 23 21 20 22 24 29 29 28 28 30 31 32
Wind_Direction
209 211 212 215 220 218 224 226 230 241 234 227 218 219 224 229 230 236 256 201 223 236 260 212 238 301 302 291 305 289 281 279 280 285 329 75 351 269 281 293 279 261 244
212 215 218 222 223 219 218 227 223 220 225 223 212 215 213 216 221 227 222 214 208 204 205 202 216 208 273 257 283 41 312 319 296 307 296 295 269 272 267 286 279 276 128
212 212 222 223 224 230 228 222 221 217 221 224 218 218 223 223 210 212 221 224 220 220 209 210 217 215 227 289 300 297 301 303 277 295 300 274 281 288 273 270 257 278 283
237 221 230 230 232 228 229 223 224 215 218 234 242 235 226 228 227 223 211 214 223 222 223 223 229 228 224 233 255 273 256 287 269 271 279 284 269 260 271 272 257 252 255
240 253 234 238 237 238 230 220 220 210 206 205 222 230 236 234 228 214 215 213 210 222 223 231 238 224 204 228 258 292 339 279 301 294 288 281 279 340 334 322 303 274 292
271 270 270 250 241 242 237 234 224 206 217 197 195 209 231 236 233 217 210 210 212 218 223 231 243 241 237 229 241 245 226 264 279 296 295 348 321 304 283 309 326 303 305
54 46 37 51 43 217 259 246 269 225 227 257 263 237 225 230 239 219 208 220 219 220 228 245 252 265 195 217 231 237 243 247 259 276 285 294 316 294 308 306 287 309 278
62 63 56 50 36 359 348 322 275 261 264 274 264 249 242 231 223 204 205 209 235 226 217 235 262 273 264 249 243 234 234 227 241 246 253 284 280 274 276 277 286 283 274
69 67 59 40 17 327 311 298 290 278 270 265 262 250 240 228 221 212 218 199 216 216 211 208 231 279 265 261 259 271 275 265 278 247 277 292 280 269 261 262 268 260 265
63 45 32 22 10 356 342 325 311 298 283 279 268 254 240 228 220 199 201 202 197 198 210 212 203 257 280 270 260 252 259 271 276 280 284 285 278 273 260 259 252 262 280
59 65 49 26 6 10 350 340 327 313 293 279 273 257 245 237 192 176 175 173 128 107 328 53 132 140 279 272 271 260 277 289 300 289 281 275 276 259 248 227 234 252 274
67 56 37 19 23 23 17 9 7 4 16 26 36 41 103 88 101 124 145 124 85 48 35 40 32 2 319 276 265 247 258 271 283 288 291 290 288 288 286 259 241 255 273
41 49 42 46 39 38 44 42 40 45 55 67 81 80 77 71 77 94 102 120 96 50 312 356 301 283 280 280 259 248 257 269 274 290 298 305 311 301 304 296 276 266 267
64 70 72 63 49 45 44 44 45 46 53 63 67 69 79 99 116 139 142 157 163 166 209 249 267 275 261 258 267 261 267 268 269 292 298 296 295 296 291 281 281 278 275
72 71 64 71 66 64 58 52 54 52 55 66 67 75 77 85 113 140 174 240 266 273 284 287 274 256 256 257 259 263 268 269 287 303 308 307 302 294 293 284 278 280 286
102 85 67 81 87 70 89 68 59 60 81 95 98 85 61 318 260 258 267 272 272 277 278 287 288 283 271 265 245 261 291 302 308 305 301 298 304 307 315 304 304 296 296
79 91 98 96 44 53 44 99 102 77 74 79 82 82 80 67 58 63 49 15 313 270 256 305 303 302 336 334 318 315 318 302 303 299 288 295 296 298 311 323 316 313 311
66 38 34 39 49 48 43 70 94 80 80 78 73 72 66 63 60 58 38 231 185 119 105 19 345 342 331 320 305 299 289 279 282 292 291 295 300 307 303 304 308 312 319
31 49 37 43 41 39 60 79 68 88 75 102 157 126 63 53 89 69 25 331 347 340 345 335 340 328 316 315 317 315 307 300 311 307 299 301 311 310 312 305 302 300 285
61 55 47 44 49 41 18 357 6 29 12 23 32 9 353 318 307 6 18 6 349 356 353 339 345 329 326 312 309 306 297 302 294 294 300 300 296 299 300 305 303 305 304
69 62 55 51 39 6 0 11 7 360 5 4 89 51 9 322 345 358 351 351 335 340 341 334 327 321 310 312 314 312 305 302 303 301 300 299 299 299 299 297 296 294 293
64 56 41 36 33 24 20 30 29 19 14 8 4 121 11 308 353 352 348 336 336 332 323 322 313 311 307 306 305 302 302 303 308 320 322 325 317 313 309 311 313 310 307
37 54 73 67 72 85 52 36 19 8 9 7 3 359 354 355 339 335 335 320 324 319 315 312 310 307 308 310 313 313 311 312 309 306 296 289 291 287 288 292 287 291 293
58 63 60 54 29 22 13 31 36 49 352 356 348 339 331 329 327 329 322 322 314 308 304 302 297 292 289 285 284 281 280 280 280 285 290 291 292 291 292 288 292 287 278
68 64 57 46 29 17 359 351 358 353 341 337 335 331 328 338 333 333 336 330 325 323 327 327 316 317 316 307 300 302 305 301 300 284 276 275 276 281 283 278 281 277 279
60 61 34 2 4 359 350 341 337 334 332 336 317 329 348 333 326 331 334 348 347 334 327 321 318 315 315 317 318 318 322 315 307 295 283 277 279 281 280 276 274 279 278